Time,TemperatureF,DewpointF,PressureIn,WindDirection,WindDirectionDegrees,WindSpeedMPH,WindSpeedGustMPH,Humidity,HourlyPrecipIn,Conditions,Clouds,dailyrainin,SoftwareType,DateUTC
2013-06-07 00:03:00,74.0,72.0,29.80,SE,145,2.0,6.0,93,0.00,,,1.62,,2013-06-07 04:03:00,
2013-06-07 00:12:00,73.0,71.0,29.80,SSW,196,3.0,10.0,92,0.00,,,1.62,,2013-06-07 04:12:00,
2013-06-07 00:23:00,73.0,71.0,29.80,SSW,196,3.0,10.0,92,0.00,,,1.62,,2013-06-07 04:23:00,
2013-06-07 00:33:00,73.0,71.0,29.80,South,181,3.0,7.0,93,0.00,,,1.62,,2013-06-07 04:33:00,
2013-06-07 00:42:00,73.0,71.0,29.80,South,181,3.0,7.0,93,0.00,,,1.62,,2013-06-07 04:42:00,
2013-06-07 00:53:00,73.0,71.0,29.79,South,178,3.0,10.0,93,0.00,,,1.62,,2013-06-07 04:53:00,
2013-06-07 01:03:00,73.0,71.0,29.79,SW,234,0.0,7.0,93,0.00,,,1.61,,2013-06-07 05:03:00,
2013-06-07 01:12:00,73.0,71.0,29.79,SW,234,0.0,7.0,93,0.00,,,1.61,,2013-06-07 05:12:00,
2013-06-07 01:22:00,73.0,71.0,29.80,SW,219,3.0,6.0,93,0.00,,,1.60,,2013-06-07 05:22:00,
2013-06-07 01:32:00,72.0,70.0,29.79,WSW,240,1.0,3.0,94,0.00,,,1.59,,2013-06-07 05:32:00,
2013-06-07 01:42:00,72.0,70.0,29.79,WSW,240,1.0,3.0,94,0.00,,,1.59,,2013-06-07 05:42:00,
2013-06-07 01:52:00,72.0,70.0,29.80,SW,216,1.0,3.0,94,0.00,,,1.58,,2013-06-07 05:52:00,
2013-06-07 02:02:00,72.0,70.0,29.79,SW,215,1.0,3.0,94,0.00,,,1.57,,2013-06-07 06:02:00,
2013-06-07 02:12:00,72.0,70.0,29.79,SW,215,1.0,3.0,94,0.00,,,1.57,,2013-06-07 06:12:00,
2013-06-07 02:22:00,72.0,70.0,29.79,SW,233,0.0,7.0,94,0.00,,,1.56,,2013-06-07 06:22:00,
2013-06-07 02:32:00,72.0,70.0,29.79,SW,220,1.0,3.0,95,0.00,,,1.54,,2013-06-07 06:32:00,
2013-06-07 02:42:00,72.0,70.0,29.79,SW,220,1.0,3.0,95,0.00,,,1.54,,2013-06-07 06:42:00,
2013-06-07 02:52:00,72.0,70.0,29.79,SSE,166,0.0,3.0,95,0.00,,,1.53,,2013-06-07 06:52:00,
2013-06-07 03:02:00,72.0,70.0,29.79,SSW,206,2.0,5.0,95,0.00,,,1.52,,2013-06-07 07:02:00,
2013-06-07 03:12:00,72.0,70.0,29.79,SSW,206,2.0,5.0,95,0.00,,,1.52,,2013-06-07 07:12:00,
2013-06-07 03:22:00,73.0,72.0,29.79,SW,214,0.0,3.0,96,0.00,,,1.52,,2013-06-07 07:22:00,
2013-06-07 03:32:00,73.0,72.0,29.79,SW,235,2.0,6.0,96,0.00,,,1.51,,2013-06-07 07:32:00,
2013-06-07 03:42:00,73.0,72.0,29.79,SW,235,2.0,6.0,96,0.00,,,1.51,,2013-06-07 07:42:00,
2013-06-07 03:52:00,73.0,72.0,29.80,SW,216,2.0,3.0,96,0.00,,,1.50,,2013-06-07 07:52:00,
2013-06-07 04:02:00,73.0,72.0,29.80,SW,214,2.0,7.0,96,0.00,,,1.50,,2013-06-07 08:02:00,
2013-06-07 04:12:00,73.0,72.0,29.80,SW,214,2.0,7.0,96,0.00,,,1.50,,2013-06-07 08:12:00,
2013-06-07 04:22:00,73.0,72.0,29.80,SSW,200,2.0,10.0,96,0.00,,,1.49,,2013-06-07 08:22:00,
2013-06-07 04:32:00,73.0,72.0,29.79,SSW,200,1.0,3.0,96,0.00,,,1.49,,2013-06-07 08:32:00,
2013-06-07 04:43:00,73.0,72.0,29.79,SSW,200,1.0,3.0,96,0.00,,,1.49,,2013-06-07 08:43:00,
2013-06-07 04:52:00,73.0,72.0,29.80,SSE,150,2.0,5.0,96,0.00,,,1.48,,2013-06-07 08:52:00,
2013-06-07 05:02:00,72.0,71.0,29.81,SW,233,2.0,5.0,96,0.00,,,1.48,,2013-06-07 09:02:00,
2013-06-07 05:12:00,72.0,71.0,29.81,SW,233,2.0,5.0,96,0.00,,,1.48,,2013-06-07 09:12:00,
2013-06-07 05:22:00,73.0,72.0,29.81,WSW,241,1.0,5.0,97,0.00,,,1.48,,2013-06-07 09:22:00,
2013-06-07 05:32:00,73.0,72.0,29.82,SSW,204,1.0,3.0,97,0.00,,,1.48,,2013-06-07 09:32:00,
2013-06-07 05:43:00,73.0,72.0,29.82,SSW,204,1.0,3.0,97,0.00,,,1.48,,2013-06-07 09:43:00,
2013-06-07 05:53:00,73.0,72.0,29.83,SE,145,2.0,3.0,97,0.00,,,1.47,,2013-06-07 09:53:00,
2013-06-07 06:02:00,73.0,72.0,29.83,SE,142,2.0,5.0,97,0.00,,,1.46,,2013-06-07 10:02:00,
2013-06-07 06:13:00,73.0,72.0,29.83,SE,142,2.0,5.0,97,0.00,,,1.46,,2013-06-07 10:13:00,
2013-06-07 06:23:00,73.0,72.0,29.83,SSE,168,1.0,6.0,96,0.00,,,1.46,,2013-06-07 10:23:00,
2013-06-07 06:33:00,73.0,72.0,29.83,WSW,246,0.0,3.0,97,0.00,,,1.45,,2013-06-07 10:33:00,
2013-06-07 06:42:00,73.0,72.0,29.83,WSW,246,0.0,3.0,97,0.00,,,1.45,,2013-06-07 10:42:00,
2013-06-07 06:53:00,73.0,72.0,29.85,SW,219,0.0,2.0,97,0.00,,,1.43,,2013-06-07 10:53:00,
2013-06-07 07:02:00,73.0,72.0,29.85,WSW,241,1.0,3.0,97,0.00,,,1.42,,2013-06-07 11:02:00,
2013-06-07 07:12:00,73.0,72.0,29.85,WSW,241,1.0,3.0,97,0.00,,,1.42,,2013-06-07 11:12:00,
2013-06-07 07:22:00,73.0,72.0,29.86,SW,226,2.0,3.0,97,0.00,,,1.40,,2013-06-07 11:22:00,
2013-06-07 07:32:00,73.0,72.0,29.86,SW,232,0.0,3.0,97,0.00,,,1.38,,2013-06-07 11:32:00,
2013-06-07 07:42:00,73.0,72.0,29.86,SW,232,0.0,3.0,97,0.00,,,1.38,,2013-06-07 11:42:00,
2013-06-07 07:52:00,74.0,73.0,29.86,SW,222,1.0,5.0,97,0.00,,,1.33,,2013-06-07 11:52:00,
2013-06-07 08:02:00,75.0,74.0,29.86,SW,236,1.0,3.0,96,0.00,,,0.99,,2013-06-07 12:02:00,
2013-06-07 08:12:00,75.0,74.0,29.86,SW,236,1.0,3.0,96,0.00,,,0.99,,2013-06-07 12:12:00,
2013-06-07 08:22:00,75.0,73.0,29.87,SW,227,2.0,6.0,95,0.00,,,0.67,,2013-06-07 12:22:00,
2013-06-07 08:32:00,76.0,74.0,29.87,SW,232,2.0,6.0,94,0.00,,,0.66,,2013-06-07 12:32:00,
2013-06-07 08:42:00,76.0,74.0,29.87,SW,232,2.0,6.0,94,0.00,,,0.66,,2013-06-07 12:42:00,
2013-06-07 08:52:00,76.0,74.0,29.87,SW,214,0.0,3.0,93,0.00,,,0.65,,2013-06-07 12:52:00,
2013-06-07 09:02:00,77.0,74.0,29.88,SW,231,5.0,10.0,91,0.01,,,0.65,,2013-06-07 13:02:00,
2013-06-07 09:12:00,77.0,74.0,29.88,SW,231,5.0,10.0,91,0.01,,,0.65,,2013-06-07 13:12:00,
2013-06-07 09:22:00,77.0,74.0,29.88,SW,227,0.0,5.0,91,0.01,,,0.63,,2013-06-07 13:22:00,
2013-06-07 09:32:00,78.0,74.0,29.88,SSW,209,3.0,9.0,89,0.01,,,0.63,,2013-06-07 13:32:00,
2013-06-07 09:42:00,78.0,74.0,29.88,SSW,209,3.0,9.0,89,0.01,,,0.63,,2013-06-07 13:42:00,
2013-06-07 09:52:00,79.0,75.0,29.88,SW,228,3.0,10.0,88,0.01,,,0.63,,2013-06-07 13:52:00,
2013-06-07 10:02:00,80.0,75.0,29.89,WSW,255,5.0,10.0,85,0.00,,,0.63,,2013-06-07 14:02:00,
2013-06-07 10:12:00,80.0,75.0,29.90,SSW,199,5.0,9.0,85,0.00,,,0.63,,2013-06-07 14:12:00,
2013-06-07 10:23:00,80.0,75.0,29.90,SSW,199,5.0,9.0,85,0.00,,,0.63,,2013-06-07 14:23:00,
2013-06-07 10:32:00,80.0,75.0,29.90,SW,234,4.0,10.0,84,0.00,,,0.63,,2013-06-07 14:32:00,
2013-06-07 10:42:00,81.0,75.0,29.91,SSW,198,6.0,13.0,81,0.00,,,0.63,,2013-06-07 14:42:00,
2013-06-07 10:52:00,81.0,75.0,29.91,SSW,198,6.0,13.0,81,0.00,,,0.63,,2013-06-07 14:52:00,
2013-06-07 11:02:00,81.0,74.0,29.91,West,267,5.0,12.0,80,0.00,,,0.63,,2013-06-07 15:02:00,
2013-06-07 11:12:00,82.0,75.0,29.91,SSW,198,2.0,10.0,79,0.00,,,0.63,,2013-06-07 15:12:00,
2013-06-07 11:23:00,82.0,75.0,29.91,SSW,198,2.0,10.0,79,0.00,,,0.63,,2013-06-07 15:23:00,
2013-06-07 11:33:00,82.0,75.0,29.90,SW,227,4.0,12.0,79,0.00,,,0.63,,2013-06-07 15:33:00,
2013-06-07 11:43:00,82.0,75.0,29.90,SW,227,4.0,12.0,79,0.00,,,0.63,,2013-06-07 15:43:00,
2013-06-07 11:53:00,83.0,75.0,29.91,SW,230,3.0,12.0,78,0.00,,,0.63,,2013-06-07 15:53:00,
2013-06-07 12:03:00,83.0,75.0,29.91,SW,227,6.0,12.0,77,0.00,,,0.63,,2013-06-07 16:03:00,
2013-06-07 12:13:00,83.0,75.0,29.91,SW,227,6.0,12.0,77,0.00,,,0.63,,2013-06-07 16:13:00,
2013-06-07 12:22:00,84.0,76.0,29.91,SSW,213,5.0,14.0,76,0.00,,,0.62,,2013-06-07 16:22:00,
2013-06-07 12:33:00,84.0,75.0,29.91,SE,127,5.0,13.0,74,0.00,,,0.62,,2013-06-07 16:33:00,
2013-06-07 12:43:00,84.0,75.0,29.91,SE,127,5.0,13.0,74,0.00,,,0.62,,2013-06-07 16:43:00,
2013-06-07 12:53:00,85.0,75.0,29.91,SW,235,7.0,15.0,73,0.00,,,0.62,,2013-06-07 16:53:00,
2013-06-07 13:03:00,85.0,75.0,29.91,WSW,237,5.0,12.0,73,0.00,,,0.62,,2013-06-07 17:03:00,
2013-06-07 13:13:00,85.0,75.0,29.91,WSW,237,5.0,12.0,73,0.00,,,0.62,,2013-06-07 17:13:00,
2013-06-07 13:23:00,85.0,76.0,29.90,South,173,3.0,13.0,75,0.00,,,0.62,,2013-06-07 17:23:00,
2013-06-07 13:32:00,85.0,76.0,29.90,WSW,250,6.0,13.0,75,0.00,,,0.62,,2013-06-07 17:32:00,
2013-06-07 13:43:00,85.0,76.0,29.90,WSW,250,6.0,13.0,75,0.00,,,0.62,,2013-06-07 17:43:00,
2013-06-07 13:52:00,85.0,75.0,29.89,WSW,258,7.0,14.0,72,0.00,,,0.62,,2013-06-07 17:52:00,
2013-06-07 14:07:00,85.0,75.0,29.88,West,271,6.0,14.0,73,0.00,,,0.61,,2013-06-07 18:07:00,
2013-06-07 14:20:00,85.0,75.0,29.88,West,271,6.0,14.0,73,0.00,,,0.61,,2013-06-07 18:20:00,
2013-06-07 14:26:00,86.0,75.0,29.88,SSW,192,7.0,13.0,71,0.00,,,0.56,,2013-06-07 18:26:00,
2013-06-07 14:35:00,86.0,75.0,29.88,WSW,242,8.0,18.0,71,0.00,,,0.48,,2013-06-07 18:35:00,
2013-06-07 14:45:00,86.0,75.0,29.88,WSW,242,8.0,18.0,71,0.00,,,0.48,,2013-06-07 18:45:00,
2013-06-07 15:00:00,86.0,76.0,29.88,West,263,8.0,13.0,72,0.00,,,0.12,,2013-06-07 19:00:00,
2013-06-07 15:08:00,87.0,76.0,29.88,SW,218,6.0,13.0,71,0.00,,,0.12,,2013-06-07 19:08:00,
2013-06-07 15:15:00,87.0,76.0,29.88,SW,218,6.0,13.0,71,0.00,,,0.12,,2013-06-07 19:15:00,
2013-06-07 15:29:00,87.0,76.0,29.88,SW,221,5.0,13.0,71,0.00,,,0.12,,2013-06-07 19:29:00,
2013-06-07 15:59:00,87.0,76.0,29.87,SW,218,7.0,13.0,69,0.00,,,0.09,,2013-06-07 19:59:00,
2013-06-07 16:07:00,87.0,76.0,29.87,WSW,244,5.0,10.0,69,0.00,,,0.07,,2013-06-07 20:07:00,
2013-06-07 16:16:00,86.0,75.0,29.87,SW,225,3.0,12.0,71,0.00,,,0.07,,2013-06-07 20:16:00,
2013-06-07 16:38:00,88.0,76.0,29.88,SW,225,3.0,10.0,68,0.00,,,0.06,,2013-06-07 20:38:00,
2013-06-07 16:56:00,87.0,76.0,29.88,SW,226,4.0,9.0,70,0.00,,,0.05,,2013-06-07 20:56:00,
2013-06-07 17:06:00,86.0,76.0,29.87,SW,236,3.0,10.0,72,0.00,,,0.03,,2013-06-07 21:06:00,
2013-06-07 17:28:00,87.0,77.0,29.88,SW,230,5.0,10.0,72,0.00,,,0.02,,2013-06-07 21:28:00,
2013-06-07 17:39:00,87.0,76.0,29.88,SW,227,6.0,12.0,69,0.00,,,0.01,,2013-06-07 21:39:00,
2013-06-07 17:45:00,87.0,76.0,29.88,SW,227,6.0,12.0,69,0.00,,,0.01,,2013-06-07 21:45:00,
2013-06-07 18:02:00,88.0,76.0,29.88,SW,231,5.0,12.0,68,0.00,,,0.01,,2013-06-07 22:02:00,
2013-06-07 18:08:00,88.0,76.0,29.88,SW,228,4.0,7.0,67,0.00,,,0.01,,2013-06-07 22:08:00,
2013-06-07 18:22:00,88.0,76.0,29.88,SW,228,4.0,7.0,67,0.00,,,0.01,,2013-06-07 22:22:00,
2013-06-07 18:28:00,88.0,77.0,29.88,SSW,192,1.0,7.0,69,0.00,,,0.01,,2013-06-07 22:28:00,
2013-06-07 18:47:00,87.0,76.0,29.88,SW,225,4.0,9.0,69,0.00,,,0.01,,2013-06-07 22:47:00,
2013-06-07 19:00:00,86.0,75.0,29.88,WSW,238,4.0,10.0,71,0.00,,,0.01,,2013-06-07 23:00:00,
2013-06-07 19:08:00,86.0,75.0,29.88,SW,226,3.0,9.0,71,0.00,,,0.01,,2013-06-07 23:08:00,
2013-06-07 19:19:00,86.0,75.0,29.88,SSW,213,2.0,6.0,70,0.00,,,0.01,,2013-06-07 23:19:00,
2013-06-07 19:30:00,86.0,75.0,29.88,SSW,213,2.0,6.0,70,0.00,,,0.01,,2013-06-07 23:30:00,
2013-06-07 19:37:00,85.0,76.0,29.89,SSW,204,2.0,5.0,74,0.00,,,0.01,,2013-06-07 23:37:00,
2013-06-07 19:50:00,85.0,76.0,29.89,SSW,204,2.0,5.0,74,0.00,,,0.01,,2013-06-07 23:50:00,
2013-06-07 20:04:00,85.0,76.0,29.90,SSW,213,1.0,7.0,75,0.00,,,0.01,,2013-06-08 00:04:00,
2013-06-07 20:11:00,84.0,76.0,29.91,SE,140,1.0,3.0,77,0.00,,,0.01,,2013-06-08 00:11:00,
2013-06-07 20:18:00,83.0,76.0,29.91,SW,214,2.0,6.0,79,0.00,,,0.01,,2013-06-08 00:18:00,
2013-06-07 20:28:00,83.0,76.0,29.91,SW,214,2.0,6.0,79,0.00,,,0.01,,2013-06-08 00:28:00,
2013-06-07 20:34:00,83.0,76.0,29.91,SSW,204,1.0,5.0,80,0.00,,,0.01,,2013-06-08 00:34:00,
2013-06-07 20:45:00,83.0,76.0,29.91,SSW,204,1.0,5.0,80,0.00,,,0.01,,2013-06-08 00:45:00,
2013-06-07 21:01:00,82.0,76.0,29.92,South,182,1.0,3.0,81,0.00,,,0.01,,2013-06-08 01:01:00,
2013-06-07 21:07:00,80.0,75.0,29.92,South,186,1.0,6.0,84,0.00,,,0.01,,2013-06-08 01:07:00,
2013-06-07 21:18:00,79.0,74.0,29.93,South,178,3.0,12.0,85,0.00,,,0.01,,2013-06-08 01:18:00,
2013-06-07 21:28:00,79.0,74.0,29.93,South,178,3.0,12.0,85,0.00,,,0.01,,2013-06-08 01:28:00,
2013-06-07 21:38:00,78.0,73.0,29.93,South,191,3.0,6.0,85,0.00,,,0.01,,2013-06-08 01:38:00,
2013-06-07 21:45:00,78.0,73.0,29.93,South,191,3.0,6.0,85,0.00,,,0.01,,2013-06-08 01:45:00,
2013-06-07 22:09:00,77.0,73.0,29.93,South,188,1.0,3.0,87,0.00,,,0.01,,2013-06-08 02:09:00,
2013-06-07 22:15:00,76.0,72.0,29.93,SSW,211,2.0,3.0,88,0.00,,,0.01,,2013-06-08 02:15:00,
2013-06-07 22:29:00,76.0,72.0,29.93,SSW,211,2.0,3.0,88,0.00,,,0.01,,2013-06-08 02:29:00,
2013-06-07 22:34:00,76.0,73.0,29.94,SW,216,0.0,0.0,89,0.00,,,0.01,,2013-06-08 02:34:00,
2013-06-07 22:47:00,76.0,73.0,29.94,SSW,204,1.0,3.0,90,0.00,,,0.01,,2013-06-08 02:47:00,
2013-06-07 22:59:00,76.0,73.0,29.94,SSW,204,1.0,3.0,90,0.00,,,0.01,,2013-06-08 02:59:00,
2013-06-07 23:09:00,75.0,72.0,29.94,WSW,237,1.0,3.0,91,0.00,,,0.01,,2013-06-08 03:09:00,
2013-06-07 23:17:00,75.0,72.0,29.94,WSW,237,1.0,3.0,91,0.00,,,0.01,,2013-06-08 03:17:00,
2013-06-07 23:27:00,75.0,73.0,29.94,SSW,198,0.0,1.0,92,0.00,,,0.01,,2013-06-08 03:27:00,
2013-06-07 23:52:00,75.0,73.0,29.94,SW,223,0.0,3.0,92,0.00,,,0.01,,2013-06-08 03:52:00,